{"data":{"norad_id":64679,"intl_designator":"2025-139R","name":"STARLINK-34489","alt_names":[],"object_type":"PAYLOAD","status":"ACTIVE","operator":null,"country":"US","launch_date":"2025-06-28","launch_site_code":"AFETR","launch_vehicle":null,"mission":null,"orbit_class":"UNKNOWN","rcs_meters":null,"size_class":null,"mass_kg":null,"dimensions":null,"purposes":["comms"],"wikipedia_slug":null,"has_3d_model":false,"image_url":null,"decayed_at":null,"tle_current":{"epoch":"2026-05-25T02:40:36.755328Z","epoch_age_seconds":64856,"freshness":"FRESH","line1":"1 64679U 25139R   26145.11153652  .00017902  00000+0  53960-3 0  9998","line2":"2 64679  53.1578 131.4245 0001824 108.9609 251.1591 15.34405153 51990","mean_motion":15.34405153,"eccentricity":0.0001824,"inclination_deg":53.1578,"raan_deg":131.4245,"arg_perigee_deg":108.9609,"mean_anomaly_deg":251.1591,"bstar":0.0005396,"rev_number":5199,"period_min":93.84744291197,"perigee_km":461.4401579818,"apogee_km":463.93569091424,"semimajor_km":6840.824924448,"source":"CELESTRAK","updated_at":"2026-05-25T13:38:20.506022Z"}}}